Location: Godiavel Galaoual
(15.2485°N, 12.6604°W)
Time: 11:19:06
(UTC+00:00)

Tiros 1 despin weight - All Passes

Search period start: 13 June 2021 00:00
Search period end: 23 June 2021 00:00
Orbit: 593 x 641 km, 48.2° (Epoch: 12 June)

Date Brightness Start Highest point End Pass type
(mag) Time Alt. Az. Time Alt. Az. Time Alt. Az.
13 Jun - 07:01:51 10° SW 07:06:14 68° NW 07:10:36 10° NE daylight
13 Jun - 15:41:27 10° N 15:44:42 19° NE 15:47:58 10° E daylight
13 Jun - 17:21:57 10° WNW 17:26:13 39° SW 17:30:33 10° SSE daylight
14 Jun - 05:37:37 10° S 05:41:12 24° SE 05:44:46 10° ENE visible
14 Jun - 07:18:51 10° WSW 07:22:33 26° NW 07:26:16 10° NNE daylight
14 Jun - 15:56:45 10° NNW 16:01:05 44° NE 16:05:29 10° ESE daylight
14 Jun - 17:39:40 10° W 17:42:23 16° SW 17:45:08 10° SSW daylight
15 Jun - 05:52:59 10° SSW 05:57:22 66° SE 06:01:44 10° NE visible
15 Jun - 07:37:35 10° WNW 07:39:03 11° NW 07:40:31 10° NNW daylight
15 Jun - 14:34:04 10° NNE 14:35:37 12° NE 14:37:12 10° ENE daylight
15 Jun - 16:12:49 10° NW 16:17:21 71° SW 16:21:56 10° SE daylight
16 Jun - 04:30:05 10° SSE 04:32:22 14° SE 04:34:38 10° E visible
16 Jun - 06:09:23 10° WSW 06:13:37 45° NW 06:17:50 10° NNE daylight
16 Jun - 14:48:19 10° NNW 14:52:07 26° NE 14:55:57 10° ESE daylight
16 Jun - 16:29:42 10° WNW 16:33:32 27° SW 16:37:25 10° S daylight
17 Jun - 04:44:26 10° SSW 04:48:31 36° SE 04:52:34 10° ENE visible
17 Jun - 06:26:51 10° W 06:30:00 19° NW 06:33:08 10° N daylight
17 Jun - 15:03:58 10° NW 15:08:27 65° NE 15:13:00 10° SE daylight
17 Jun - 16:49:09 10° WSW 16:49:41 10° SW 16:50:14 10° SW daylight
18 Jun - 05:00:16 10° SW 05:04:43 82° NW 05:09:08 10° NE visible
18 Jun - 13:40:19 10° N 13:43:06 16° NE 13:45:54 10° E daylight
18 Jun - 15:20:20 10° NW 15:24:40 47° SW 15:29:05 10° SSE daylight
19 Jun - 03:36:21 10° S 03:39:41 20° SE 03:42:59 10° E visible
19 Jun - 05:17:04 10° WSW 05:21:01 31° NW 05:24:56 10° NNE visible
19 Jun - 13:55:22 10° NNW 13:59:31 36° NE 14:03:43 10° ESE daylight
19 Jun - 15:37:42 10° W 15:40:50 18° SW 15:44:00 10° S daylight
20 Jun - 03:51:29 10° SSW 03:55:51 54° SE 04:00:10 10° NE visible
20 Jun - 05:35:14 10° WNW 05:37:28 14° NW 05:39:41 10° N visible
20 Jun - 14:11:18 10° NW 14:15:47 85° SW 14:20:21 10° SE daylight
21 Jun - 02:29:19 10° SSE 02:30:51 12° SE 02:32:23 10° ESE night (unlit)
21 Jun - 04:07:42 10° SW 04:12:05 55° NW 04:16:25 10° NNE visible
21 Jun - 12:47:03 10° N 12:50:32 22° NE 12:54:03 10° E daylight
21 Jun - 14:27:59 10° WNW 14:31:59 31° SW 14:36:02 10° SSE daylight
22 Jun - 02:43:03 10° S 02:47:00 30° SE 02:50:54 10° ENE visible
22 Jun - 04:24:56 10° W 04:28:26 22° NW 04:31:54 10° N visible
22 Jun - 13:02:31 10° NNW 13:06:53 53° NE 13:11:19 10° SE daylight
22 Jun - 14:46:18 10° WSW 14:48:08 12° SW 14:49:59 10° SSW daylight
